Theta_e
343 342 342 340 341 340 341 344 344 344 342 341 340 338 338 338 340 339 339 338 339 341 341 342 342 342 344 345 346 347 348 349 348 346 345 346 346 347 347 346 346 346 345
342 339 340 338 338 338 338 342 343 343 341 340 338 339 339 339 339 340 339 340 338 339 340 342 341 343 343 344 344 346 348 348 348 345 345 343 344 344 345 345 344 343 343
344 343 338 338 339 339 341 342 341 341 340 339 339 339 339 340 339 339 339 338 338 337 340 341 343 344 344 343 342 342 345 348 347 346 342 343 342 339 341 344 344 342 342
343 341 337 337 340 340 338 338 339 337 338 338 338 339 339 339 339 339 339 338 337 337 338 341 342 343 343 342 341 342 343 346 347 345 342 342 341 341 341 343 343 342 342
341 338 337 338 341 335 336 339 338 338 341 340 337 338 339 338 338 337 337 338 338 338 338 341 341 341 341 341 341 341 343 343 345 345 343 343 342 339 340 344 344 343 341
340 341 339 340 338 336 336 339 339 340 341 339 336 332 334 336 336 337 337 338 337 338 339 341 339 337 340 341 341 340 342 342 344 345 344 342 341 340 341 342 342 342 339
341 341 338 339 338 337 338 340 339 339 336 335 329 329 331 334 335 335 336 336 335 337 338 339 342 338 336 340 340 341 342 342 343 344 343 341 342 341 342 342 341 340 336
343 341 340 338 339 336 341 338 336 333 333 330 328 324 322 326 330 332 334 334 336 336 336 337 333 336 338 339 340 340 342 342 343 345 343 341 341 342 342 341 340 337 332
342 342 340 337 337 340 337 336 341 337 331 327 328 326 320 318 325 331 330 333 335 337 337 338 332 334 340 339 338 338 342 342 341 345 343 341 342 342 341 339 331 328 326
341 341 339 338 340 339 335 340 339 337 334 328 324 328 327 326 321 320 326 330 335 332 336 337 338 337 339 340 339 339 338 340 343 344 343 343 342 341 340 333 330 332 331
343 340 340 341 342 337 337 340 337 334 332 330 327 326 325 326 327 324 321 323 327 330 327 334 334 337 339 339 340 339 334 336 338 339 341 340 342 341 337 333 333 330 328
340 341 341 342 342 340 339 336 336 335 333 331 329 328 325 323 323 325 323 320 321 322 326 330 335 335 337 339 339 332 332 332 331 333 335 337 339 338 334 333 332 330 331
338 339 341 340 338 338 336 335 335 334 333 331 331 328 328 326 327 330 325 319 318 321 325 332 337 336 337 340 340 334 333 328 327 327 328 331 332 332 332 330 331 330 330
337 339 339 338 336 335 335 335 333 333 334 332 332 331 330 328 328 330 323 318 317 319 324 329 333 335 337 338 339 333 339 326 325 325 326 327 327 328 328 330 329 329 331
336 337 336 335 334 334 335 335 333 334 334 333 332 332 331 330 329 325 325 321 323 317 319 327 329 335 336 338 337 341 341 325 326 324 323 323 324 325 326 324 325 327 328
336 335 334 334 333 334 334 336 337 336 334 332 332 332 332 330 330 327 328 328 330 328 319 327 328 334 338 338 336 337 337 327 325 323 323 322 321 321 321 322 323 324 325
334 333 332 332 332 333 335 336 336 334 330 333 333 332 331 332 329 329 330 329 327 331 323 325 330 330 330 333 332 333 330 329 325 323 323 321 319 319 319 319 320 321 322
332 332 331 331 331 331 333 333 331 331 328 331 331 331 330 331 332 332 330 331 329 330 326 321 322 320 323 326 325 325 324 326 325 322 321 318 316 315 314 315 316 316 317
331 332 331 330 331 332 332 333 326 327 329 332 332 331 331 333 331 330 329 328 329 329 330 322 317 320 321 321 320 321 321 321 322 321 317 315 314 314 314 313 313 312 311
331 330 331 332 333 333 333 331 330 329 327 332 333 333 332 333 331 327 327 327 329 328 325 320 317 316 317 319 318 316 316 319 318 320 318 316 314 313 312 313 313 313 309
330 333 333 332 332 332 325 328 331 329 326 330 331 333 334 330 323 325 327 327 327 323 321 317 315 315 314 314 314 316 315 316 318 320 318 319 319 318 315 315 317 312 308
332 332 331 330 330 327 303 307 320 329 328 327 326 328 328 322 318 313 315 316 323 323 319 316 314 313 313 314 316 315 313 312 309 318 315 310 317 314 318 320 309 306 305
331 328 331 328 328 329 301 304 310 328 326 326 325 325 324 324 322 323 310 310 311 311 316 320 315 316 313 315 316 314 316 317 313 315 314 306 311 310 319 315 305 304 303
328 328 329 327 329 322 303 304 310 328 326 324 324 325 324 323 325 325 323 322 322 321 322 323 323 320 319 318 317 318 319 313 314 317 319 307 308 315 317 317 303 303 301
327 328 329 327 329 324 303 303 316 325 324 322 322 321 321 320 304 306 322 318 317 315 307 305 305 304 302 304 312 315 313 314 311 311 318 313 314 314 316 317 314 302 301
328 328 327 328 316 325 301 303 318 325 323 322 322 320 307 313 300 304 322 319 313 313 314 314 314 309 311 309 309 321 319 316 313 311 318 318 315 316 314 315 315 312 309
Wind_Speed
11 11 10 9 6 8 7 7 8 7 7 8 7 7 6 6 6 4 4 6 9 10 13 13 15 14 13 9 8 9 10 12 14 14 12 11 11 14 15 15 15 14 12
10 11 11 11 9 7 7 8 8 8 8 7 8 8 7 7 7 6 5 4 8 9 10 12 15 15 14 11 10 9 9 11 12 14 13 9 8 8 10 13 14 13 14
14 13 12 10 7 6 10 6 6 5 6 6 9 7 6 8 7 8 7 5 4 8 9 10 15 15 16 13 11 10 9 9 11 12 13 11 11 6 4 14 14 16 15
15 14 11 11 9 8 6 5 5 6 7 6 6 6 6 6 8 9 8 6 5 5 6 10 11 11 13 13 12 10 10 9 8 10 14 16 13 13 16 10 15 17 18
17 13 12 11 11 6 6 6 6 7 6 6 5 6 6 7 8 8 9 8 7 6 5 5 10 10 10 10 10 10 10 10 8 9 13 17 15 8 6 11 17 19 20
16 15 11 11 10 8 8 8 7 7 5 4 4 5 7 8 7 9 9 8 7 7 7 6 8 9 9 8 8 9 10 10 9 9 11 15 20 21 17 14 17 22 23
16 14 10 11 11 10 7 9 7 8 5 3 1 6 7 9 9 7 7 7 8 8 7 5 5 5 6 7 8 7 7 9 10 10 9 14 20 20 16 13 16 23 26
14 13 12 11 10 9 10 8 9 4 4 4 4 4 5 4 4 5 5 6 8 6 7 6 4 4 5 5 6 8 7 8 10 11 10 14 18 16 16 16 22 25 25
13 13 14 10 11 10 7 9 9 8 5 4 7 6 3 3 1 2 5 5 5 5 5 7 6 7 7 5 4 7 7 7 8 11 11 15 18 18 17 23 29 26 24
12 13 12 11 12 9 7 8 7 6 6 6 3 6 4 3 3 2 3 1 2 4 4 5 8 7 7 5 5 3 8 9 9 11 13 14 19 20 24 30 30 27 27
12 12 12 13 11 7 7 8 8 8 6 5 5 3 6 4 4 3 2 3 2 1 0 4 4 5 6 6 6 6 8 9 7 11 11 12 17 24 34 32 30 28 25
9 11 12 10 9 8 8 7 7 8 6 5 5 5 5 4 6 4 2 3 2 1 1 3 5 5 5 5 6 5 6 7 8 11 12 18 21 31 30 31 26 24 24
8 10 10 9 8 7 7 7 7 7 7 6 6 4 5 6 4 3 3 3 2 1 1 4 3 4 4 4 5 5 8 8 9 12 15 26 28 30 29 28 25 23 22
9 10 9 8 8 8 7 7 5 5 5 5 7 6 4 5 5 2 3 3 3 2 2 5 3 4 4 4 4 6 8 9 13 19 24 26 26 25 25 23 22 21 19
9 9 9 8 7 7 7 6 5 6 5 6 6 6 5 4 6 3 2 3 2 5 3 5 4 4 3 4 4 6 6 13 19 24 23 23 23 23 21 21 19 12 13
9 9 8 7 7 7 6 7 5 6 7 6 5 6 6 5 6 7 7 5 4 2 5 2 3 4 5 5 6 5 6 13 21 25 24 21 16 13 14 14 12 13 12
9 9 8 7 7 6 6 6 6 6 7 6 5 6 7 7 5 6 6 6 5 3 5 3 3 3 3 8 6 8 8 10 12 27 25 21 20 15 14 14 13 13 13
9 9 8 7 6 6 6 6 6 5 6 6 6 6 7 5 8 7 6 7 7 5 5 9 3 2 5 7 9 10 8 9 12 20 24 22 18 17 11 13 11 14 13
9 7 6 4 5 3 4 4 3 4 7 7 6 7 7 8 7 5 6 7 7 6 7 7 4 2 4 7 10 10 11 12 9 22 18 19 16 15 13 13 11 12 14
8 6 4 5 3 2 3 2 4 4 3 5 5 7 7 8 8 8 7 8 9 9 9 9 7 6 5 5 10 13 11 11 13 10 11 12 13 15 12 12 12 11 12
6 6 6 5 4 4 3 3 4 4 4 4 4 5 6 5 6 8 7 9 11 9 10 9 8 8 8 8 11 10 12 12 10 10 9 7 7 7 6 7 9 11 11
6 7 5 5 5 3 3 2 2 4 5 5 5 7 8 10 9 7 8 7 9 12 13 10 8 11 10 9 10 12 14 12 8 5 8 5 5 5 4 5 7 10 11
8 6 5 5 4 4 4 2 2 4 4 6 8 9 8 7 9 9 10 11 11 11 9 12 12 11 14 13 11 12 15 10 7 7 10 5 2 4 5 5 5 7 9
6 5 5 5 4 4 3 3 4 6 6 6 6 8 10 9 11 12 12 12 12 10 10 9 13 13 13 12 10 12 14 11 10 7 8 4 2 6 4 5 5 6 8
5 5 5 4 5 4 3 5 4 4 7 7 7 7 8 9 7 11 13 12 12 8 11 14 14 17 15 14 11 12 11 12 9 5 4 5 5 5 4 5 6 7 8
7 5 6 4 6 4 4 3 5 5 6 6 6 7 10 9 11 11 14 13 13 10 13 14 15 15 14 11 8 5 11 13 10 6 7 6 8 7 5 5 5 7 7
Wind_Direction
194 190 190 193 194 191 211 214 215 213 215 229 238 241 245 247 243 257 267 237 253 248 241 244 242 237 234 219 205 209 211 215 209 206 197 177 185 188 185 189 178 173 161
194 197 190 197 190 186 206 223 218 211 208 216 233 237 247 251 245 246 253 248 236 260 244 240 235 236 230 217 202 205 207 209 209 210 187 182 195 181 186 191 173 167 149
198 191 192 198 195 180 198 203 221 231 239 219 238 241 249 250 251 245 245 252 249 232 247 240 237 233 236 216 209 212 208 205 206 207 187 188 165 211 257 192 176 164 151
196 195 193 200 197 200 181 196 198 223 235 227 234 242 249 254 253 245 241 249 248 262 222 242 227 218 208 216 210 218 211 209 203 194 205 168 197 192 190 181 169 154 154
192 195 199 205 197 177 191 200 205 227 227 229 242 258 263 261 253 245 241 241 244 247 249 217 212 198 211 213 219 222 216 209 191 181 203 181 178 156 208 169 156 151 144
187 198 199 197 190 190 192 189 206 216 250 248 261 285 284 265 251 242 240 244 238 238 229 235 199 198 202 213 227 238 220 205 195 193 189 182 171 179 194 164 155 149 138
195 199 193 190 183 198 194 192 198 207 207 216 300 261 255 242 236 234 234 234 223 227 218 215 215 213 185 207 218 229 216 210 191 194 186 182 174 179 164 158 159 147 132
194 189 181 181 180 183 188 177 193 172 205 174 239 257 270 194 210 230 223 220 220 206 203 185 173 216 217 218 202 200 203 199 195 185 175 171 178 172 162 152 141 126 118
187 180 176 169 170 184 176 187 204 202 211 188 212 267 233 253 295 108 216 216 205 205 198 171 146 241 216 220 195 195 196 200 195 174 166 180 177 164 148 131 124 117 127
174 176 171 169 176 167 165 196 192 202 220 219 189 226 251 299 276 211 123 152 175 176 224 182 184 196 195 200 204 229 179 195 188 170 167 178 174 158 135 136 136 144 138
167 154 163 171 169 167 174 188 179 198 202 218 214 174 220 216 236 261 142 145 79 53 280 251 187 186 191 204 200 202 193 185 168 153 157 167 159 141 141 142 143 147 149
151 151 157 159 159 164 171 182 189 191 195 207 206 218 220 214 218 225 132 130 150 121 150 248 208 186 184 197 197 149 177 173 153 153 134 125 137 135 144 142 142 150 156
142 144 150 151 153 157 166 171 183 185 190 205 205 222 229 236 243 214 139 113 123 121 138 222 192 179 171 178 177 196 179 163 152 132 138 141 141 142 143 147 151 154 160
134 141 142 143 150 159 162 174 183 192 195 208 215 218 225 225 226 216 127 144 149 123 199 154 167 181 173 179 130 180 161 152 137 135 135 138 137 140 143 148 153 162 166
126 131 140 150 151 163 176 178 197 200 203 216 216 212 221 212 212 134 158 201 189 157 179 155 148 176 155 165 147 178 154 140 143 144 137 139 142 148 148 152 158 155 145
131 139 140 152 163 179 190 200 199 203 206 212 210 206 211 207 196 181 210 205 206 179 148 152 136 142 150 144 124 129 131 141 141 136 133 135 131 133 134 135 134 141 139
136 140 150 161 178 184 201 217 227 220 225 210 200 203 210 198 193 188 192 198 195 170 145 137 95 97 84 112 98 107 123 126 132 138 132 124 119 116 129 130 125 124 120
138 147 157 168 180 203 213 229 240 214 236 218 202 199 211 194 195 186 187 180 189 179 153 134 92 71 70 98 106 109 111 116 131 127 134 126 128 124 125 113 115 117 123
142 153 158 177 168 151 192 216 199 207 227 221 206 203 206 192 184 175 168 167 171 170 150 135 104 77 80 106 98 96 99 98 108 107 101 100 104 106 106 105 117 113 114
147 149 147 141 130 124 62 157 209 176 201 204 208 206 190 187 173 166 165 161 161 148 120 126 115 109 105 111 111 115 109 108 106 103 87 96 90 81 92 105 110 118 119
138 133 128 125 93 83 56 352 105 143 165 184 208 187 184 149 143 167 163 153 154 138 139 128 128 125 122 127 122 122 112 112 107 114 116 104 95 96 89 93 115 134 134
141 123 131 104 95 81 337 285 135 152 186 171 157 139 121 128 123 124 116 133 150 151 146 140 137 139 129 129 134 131 126 136 129 109 111 70 89 99 135 147 98 135 143
126 137 128 103 83 43 3 280 142 127 145 133 132 126 123 125 136 128 100 104 98 104 134 146 141 148 137 145 137 136 138 136 125 130 118 88 74 113 145 122 123 140 136
140 147 123 102 82 46 46 117 123 121 102 110 109 127 127 135 136 138 130 132 130 124 136 148 146 137 136 136 133 135 122 107 102 127 130 107 193 138 142 115 119 119 141
136 153 126 106 85 80 66 136 121 97 116 103 102 111 124 128 130 122 124 119 107 91 71 87 99 105 103 102 122 125 130 131 123 136 165 126 171 137 169 164 144 170 179
142 147 111 87 77 91 56 141 129 114 105 104 100 105 97 122 117 115 129 125 119 121 116 112 107 100 108 107 113 128 140 143 136 142 168 161 165 168 174 178 180 180 193